Location: Beetenbrück
(52.8113°N, 9.5946°E)
Time: 22:48:55
(UTC+00:00)

SJ 16-02 - Pass Details

Date: 14 April 2026
Orbit: 582 x 592 km, 75.0° (Epoch: 12 May)

Event Time Altitude Azimuth Distance (km) Brightness Sun altitude
Rises 22:13:42 0° 339° (NNW) 2,832 6.1 -25.8°
Reaches altitude 10° 22:16:02 10° 347° (NNW) 1,925 4.9 -26.0°
Enters shadow 22:19:45 39° 45° (NE) 885 2.3 -26.1°
